Tallahassee Regional Airport
KTLH : now visible

Airfield :











YOU CAN JOIN US ON...

 
LOGIN :

Register | Disclaimer

   EN    FR    IT 

 









Legend :    VFR   Marginal VFR   IFR   Intensive IFR   Very Intensive IFR
Visi :
Ceiling :
>= 8 km
>= 3000ft
5 to 8 km
1000 to 3000 ft
1500m to 5 km
500 to 1000 ft
800 to 1500m
200 to 500 ft
< 800m
< 200 ft
Symbols :   Thunderstorms  Fog  Heavy snow  Heavy precipitations  Wind > 20 kt






- Airport Elevation : 81 ft
- IATA code : TLH


KTLH - Tallahassee Regional

CURRENT METAR :
  • 240353Z 08005KT 10SM OVC070 15/07 A3015 RMK AO2 SLP208 T01500072

EXPIRED METARs :
  • 240253Z 00000KT 10SM OVC070 15/08 A3015 RMK AO2 SLP209 T01500078 51010
  • 240153Z 00000KT 10SM OVC070 15/08 A3015 RMK AO2 SLP207 T01500078

TAF KTLH
Valid from the 24 at 00:00 until the 25 at 00:00 UTC


232320Z 2400/2424 07004KT P6SM OVC100
FM240600 06006KT P6SM BKN050
FM241200 09005KT P6SM OVC025
FM241700 10006KT P6SM OVC040
KZJX FIR / North America



MET'MAP, your aeronautical weather chart ! - Copyright ORBIFLY December 2007 - Disclaimer

ORBIFLY MET'MAP TEAM :

Programming & Development : Alexandra Zaïnal
Concept & original design : Baudouin d'Aumeries
Assistance for programming : Marc-Olivier Méhu
Technical & hardware support : Manuel Goepfert

Contact : metmap@orbifly.com




SOURCES & CREDITS :

   NOAA       Earth
Advisory